World > North America > United States > Texas

Hourly Longworth, TX Regional Weather

Feedback E-mail the Weather

Quick WX

Longworth, TX Weather Maps

°F °C°F °C
Longworth Weather Map
UTC Time: 6/29/2022, 03:32
Your Time:

Longworth, TX Regional Weather

Expires:202206290400;;363614
ASUS44 KSJT 290315
RWRSJT
WEST CENTRAL TEXAS REGIONAL WEATHER ROUNDUP
NATIONAL WEATHER SERVICE SAN ANGELO TX
1000 PM CDT TUE JUN 28 2022

NOTE: "FAIR" INDICATES FEW OR NO CLOUDS BELOW 12,000 FEET WITH NO
SIGNIFICANT WEATHER AND/OR OBSTRUCTIONS TO VISIBILITY.


TXZ049-054-064>066-071>073-076>078-098-099-113-114-127-128-139-140-
154-155-168>170-290400-
...LOCATIONS ACROSS WEST CENTRAL TEXAS...
  
CITY           SKY/WX    TMP DP  RH WIND       PRES   REMARKS
SAN ANGELO     PTCLDY    82  63  52 E10       30.14S                  
ABILENE        PTCLDY    81  60  48 SE10      30.17R                  
DYESS AFB      PTCLDY    80  58  46 E9        30.15R                  
JUNCTION       MOCLDY    81  67  62 SE9       30.15R                  
SWEETWATER     PTCLDY    78  60  52 E7        30.21S                  
BROWNWOOD      CLEAR     77  63  61 CALM      30.14S                  
COLEMAN        CLEAR     78  57  48 CALM      30.16S                  
SAN SABA       CLEAR     79  67  65 SE3       30.14R                  
SONORA         PTCLDY    84  61  45 E9        30.19R                  
OZONA          FAIR      82  55  39 SE10G20   30.18R                  
BRADY          NOT AVBL                                               
$$


SKY/WX - Weather  TMP - Temperature  DP - Dew Point  RH - Humidity
WIND - Wind Direction/Speed PRES - Barometric Pressure VSB - Visibility
WCI - Wind Chill Index E13G22 Wind - East Wind 13 mph/Gusts of 22 mph

Trending Headlines

Longworth Radar Loop



Longworth Quick Facts


National Two Day Weather Forecast


E-mail the Longworth Weather Forecast

Voice your opinion or tell us about page issues...